Tracking 19489 objects as of 22-Jan-2019
HD Live streaming from Space Station
objects crossing your sky now

LES 8

Track LES 8 now!
LES 8 is classified as:


NORAD ID: 8746
Int'l Code: 1976-023A
Perigee: 35,707.2 km
Apogee: 35,882.6 km
Inclination: 17.0 °
Period: 1,436.2 minutes
Semi major axis: 42165 km
RCS: 1.7833 m2 (large)
Launch date: March 15, 1976
Source: United States (US)
Launch site: AIR FORCE EASTERN TEST RANGE (AFETR)
aabbcc
Your satellite tracking list
Your tracking list is empty




NASA's NSSDC Master Catalog

Two Line Element Set (TLE):
1  8746U 76023A   19021.18635719 -.00000099 +00000-0 +00000-0 0  9995
2  8746 017.0266 073.3764 0020801 058.6873 308.7432 01.00267683102561
Source of the keplerian elements: AFSPC